Time,TemperatureF,DewpointF,PressureIn,WindDirection,WindDirectionDegrees,WindSpeedMPH,WindSpeedGustMPH,Humidity,HourlyPrecipIn,Conditions,Clouds,dailyrainin,SoftwareType,DateUTC
2013-04-26 00:02:00,40.7,28.6,30.27,WSW,238,1.5,4.2,62,0.00,,CLR,0.00,VWS V14.00,2013-04-26 05:02:00,
2013-04-26 00:07:00,40.7,28.8,30.27,WSW,238,0.0,4.2,62,0.00,,CLR,0.00,VWS V14.00,2013-04-26 05:07:00,
2013-04-26 00:12:00,40.7,28.5,30.27,WSW,238,0.3,3.0,62,0.00,,CLR,0.00,VWS V14.00,2013-04-26 05:12:00,
2013-04-26 00:17:00,40.6,28.5,30.27,WSW,238,0.2,2.9,62,0.00,,CLR,0.00,VWS V14.00,2013-04-26 05:17:00,
2013-04-26 00:22:00,40.5,28.5,30.27,WSW,238,0.0,2.5,62,0.00,,CLR,0.00,VWS V14.00,2013-04-26 05:22:00,
2013-04-26 00:27:00,40.4,28.5,30.27,WSW,238,0.0,2.3,62,0.00,,CLR,0.00,VWS V14.00,2013-04-26 05:27:00,
2013-04-26 00:32:00,40.5,28.0,30.27,WSW,238,0.0,3.2,61,0.00,,CLR,0.00,VWS V14.00,2013-04-26 05:32:00,
2013-04-26 00:37:00,40.5,28.3,30.27,WSW,238,0.3,3.2,61,0.00,,CLR,0.00,VWS V14.00,2013-04-26 05:37:00,
2013-04-26 00:42:00,40.5,28.1,30.27,WSW,238,0.0,2.4,61,0.00,,CLR,0.00,VWS V14.00,2013-04-26 05:42:00,
2013-04-26 00:47:00,40.6,28.1,30.27,WSW,238,2.5,4.1,61,0.00,,CLR,0.00,VWS V14.00,2013-04-26 05:47:00,
2013-04-26 00:52:00,40.6,28.1,30.27,WSW,237,0.0,4.1,61,0.00,,CLR,0.00,VWS V14.00,2013-04-26 05:52:00,
2013-04-26 00:57:00,40.8,28.1,30.26,WSW,237,0.2,3.9,60,0.00,,CLR,0.00,VWS V14.00,2013-04-26 05:57:00,
2013-04-26 01:02:00,40.7,28.7,30.27,SW,233,0.0,5.7,62,0.00,,CLR,0.00,VWS V14.00,2013-04-26 06:02:00,
2013-04-26 01:07:00,40.7,28.7,30.27,SW,232,3.2,5.7,62,0.00,,CLR,0.00,VWS V14.00,2013-04-26 06:07:00,
2013-04-26 01:12:00,40.6,29.0,30.27,SW,232,0.0,5.7,63,0.00,,CLR,0.00,VWS V14.00,2013-04-26 06:12:00,
2013-04-26 01:17:00,40.7,29.2,30.27,SW,231,1.0,3.9,63,0.00,,CLR,0.00,VWS V14.00,2013-04-26 06:17:00,
2013-04-26 01:22:00,40.6,29.3,30.26,SW,231,0.0,3.9,64,0.00,,CLR,0.00,VWS V14.00,2013-04-26 06:22:00,
2013-04-26 01:27:00,40.6,29.4,30.26,SW,230,0.2,3.7,64,0.00,,CLR,0.00,VWS V14.00,2013-04-26 06:27:00,
2013-04-26 01:32:00,40.6,29.6,30.26,SW,229,3.7,5.5,65,0.00,,CLR,0.00,VWS V14.00,2013-04-26 06:32:00,
2013-04-26 01:37:00,40.6,29.4,30.26,SW,228,0.0,5.5,64,0.00,,CLR,0.00,VWS V14.00,2013-04-26 06:37:00,
2013-04-26 01:42:00,40.8,29.2,30.26,SW,225,0.7,4.7,63,0.00,,CLR,0.00,VWS V14.00,2013-04-26 06:42:00,
2013-04-26 01:47:00,40.7,29.2,30.26,SW,224,2.5,3.5,63,0.00,,CLR,0.00,VWS V14.00,2013-04-26 06:47:00,
2013-04-26 01:52:00,40.8,29.3,30.26,SSW,210,5.1,6.4,63,0.00,,CLR,0.00,VWS V14.00,2013-04-26 06:52:00,
2013-04-26 01:57:00,40.9,29.1,30.25,SSW,199,6.4,6.4,63,0.00,,CLR,0.00,VWS V14.00,2013-04-26 06:57:00,
2013-04-26 02:02:00,40.8,29.2,30.25,SSW,193,0.5,7.6,63,0.00,,CLR,0.00,VWS V14.00,2013-04-26 07:02:00,
2013-04-26 02:07:00,40.9,29.1,30.25,South,181,3.2,7.6,62,0.00,,CLR,0.00,VWS V14.00,2013-04-26 07:07:00,
2013-04-26 02:12:00,40.9,29.3,30.25,South,180,3.9,7.6,63,0.00,,CLR,0.00,VWS V14.00,2013-04-26 07:12:00,
2013-04-26 02:17:00,41.0,29.3,30.25,South,179,2.8,7.8,63,0.00,,CLR,0.00,VWS V14.00,2013-04-26 07:17:00,
2013-04-26 02:22:00,40.9,29.5,30.25,South,178,1.5,7.8,64,0.00,,CLR,0.00,VWS V14.00,2013-04-26 07:22:00,
2013-04-26 02:27:00,40.8,29.6,30.25,South,169,3.2,5.1,64,0.00,,CLR,0.00,VWS V14.00,2013-04-26 07:27:00,
2013-04-26 02:32:00,40.9,29.5,30.25,SSE,148,2.5,6.1,64,0.00,,CLR,0.00,VWS V14.00,2013-04-26 07:32:00,
2013-04-26 02:37:00,40.9,29.6,30.25,SE,142,1.2,6.9,64,0.00,,CLR,0.00,VWS V14.00,2013-04-26 07:37:00,
2013-04-26 02:42:00,41.0,29.8,30.24,SE,143,2.0,6.9,64,0.00,,CLR,0.00,VWS V14.00,2013-04-26 07:42:00,
2013-04-26 02:47:00,40.9,29.7,30.24,SE,141,3.9,6.9,64,0.00,,CLR,0.00,VWS V14.00,2013-04-26 07:47:00,
2013-04-26 02:53:00,41.1,29.7,30.24,SE,138,3.0,8.9,64,0.00,,CLR,0.00,VWS V14.00,2013-04-26 07:53:00,
2013-04-26 02:58:00,41.0,30.0,30.24,SSE,155,6.2,8.9,65,0.00,,CLR,0.00,VWS V14.00,2013-04-26 07:58:00,
2013-04-26 03:03:00,41.0,29.9,30.24,SSE,155,5.6,6.8,64,0.00,,CLR,0.00,VWS V14.00,2013-04-26 08:03:00,
2013-04-26 03:08:00,41.2,29.8,30.24,SE,143,2.2,9.5,64,0.00,,CLR,0.00,VWS V14.00,2013-04-26 08:08:00,
2013-04-26 03:13:00,41.2,29.9,30.24,SE,144,1.5,9.5,64,0.00,,CLR,0.00,VWS V14.00,2013-04-26 08:13:00,
2013-04-26 03:18:00,41.2,30.0,30.23,SE,144,5.4,6.2,64,0.00,,CLR,0.00,VWS V14.00,2013-04-26 08:18:00,
2013-04-26 03:23:00,41.4,30.0,30.23,SE,135,1.0,7.8,63,0.00,,CLR,0.00,VWS V14.00,2013-04-26 08:23:00,
2013-04-26 03:28:00,41.4,30.1,30.23,SE,135,4.3,7.8,64,0.00,,CLR,0.00,VWS V14.00,2013-04-26 08:28:00,
2013-04-26 03:33:00,41.5,30.1,30.23,SE,137,3.7,7.1,64,0.00,,CLR,0.00,VWS V14.00,2013-04-26 08:33:00,
2013-04-26 03:38:00,41.6,30.2,30.24,SE,140,2.0,8.9,64,0.00,,CLR,0.00,VWS V14.00,2013-04-26 08:38:00,
2013-04-26 03:43:00,41.7,30.2,30.24,SE,144,2.5,8.9,63,0.00,,CLR,0.00,VWS V14.00,2013-04-26 08:43:00,
2013-04-26 03:48:00,41.7,30.3,30.23,SSE,154,5.9,10.3,64,0.00,,CLR,0.00,VWS V14.00,2013-04-26 08:48:00,
2013-04-26 03:53:00,41.9,30.4,30.23,SE,141,8.1,10.3,63,0.00,,CLR,0.00,VWS V14.00,2013-04-26 08:53:00,
2013-04-26 03:58:00,41.8,30.5,30.24,SE,144,4.4,8.8,64,0.00,,CLR,0.00,VWS V14.00,2013-04-26 08:58:00,
2013-04-26 04:03:00,42.0,30.6,30.24,SSE,164,2.5,8.8,64,0.00,,CLR,0.00,VWS V14.00,2013-04-26 09:03:00,
2013-04-26 04:08:00,41.9,30.7,30.24,SE,144,5.9,8.3,64,0.00,,CLR,0.00,VWS V14.00,2013-04-26 09:08:00,
2013-04-26 04:13:00,41.8,31.1,30.24,SE,144,4.6,8.3,65,0.00,,CLR,0.00,VWS V14.00,2013-04-26 09:13:00,
2013-04-26 04:18:00,41.8,31.1,30.24,SE,141,0.5,8.3,66,0.00,,CLR,0.00,VWS V14.00,2013-04-26 09:18:00,
2013-04-26 04:23:00,41.8,31.3,30.23,SSE,147,1.2,7.6,66,0.00,,CLR,0.00,VWS V14.00,2013-04-26 09:23:00,
2013-04-26 04:28:00,42.0,31.6,30.24,South,170,6.2,11.0,66,0.00,,CLR,0.00,VWS V14.00,2013-04-26 09:28:00,
2013-04-26 04:33:00,42.1,31.7,30.24,South,169,9.1,11.0,66,0.00,,CLR,0.00,VWS V14.00,2013-04-26 09:33:00,
2013-04-26 04:38:00,42.4,32.0,30.24,SSE,157,4.4,11.0,66,0.00,,CLR,0.00,VWS V14.00,2013-04-26 09:38:00,
2013-04-26 04:43:00,42.5,32.1,30.24,SE,143,4.7,9.1,66,0.00,,CLR,0.00,VWS V14.00,2013-04-26 09:43:00,
2013-04-26 04:48:00,42.7,32.0,30.24,SSE,150,4.6,8.6,66,0.00,,CLR,0.00,VWS V14.00,2013-04-26 09:48:00,
2013-04-26 04:53:00,42.8,32.3,30.24,SSE,164,6.4,10.1,66,0.00,,CLR,0.00,VWS V14.00,2013-04-26 09:53:00,
2013-04-26 04:58:00,43.0,32.6,30.24,South,172,4.6,10.1,67,0.00,,CLR,0.00,VWS V14.00,2013-04-26 09:58:00,
2013-04-26 05:03:00,43.2,32.5,30.25,SE,146,4.7,9.8,66,0.00,,SCT120,0.00,VWS V14.00,2013-04-26 10:03:00,
2013-04-26 05:08:00,43.3,32.5,30.25,SE,140,6.8,9.5,65,0.00,,SCT120,0.00,VWS V14.00,2013-04-26 10:08:00,
2013-04-26 05:13:00,43.4,32.8,30.25,SE,143,3.9,7.3,66,0.00,,SCT120,0.00,VWS V14.00,2013-04-26 10:13:00,
2013-04-26 05:19:00,43.4,33.0,30.25,SE,139,2.9,7.8,66,0.00,,BKN120,0.00,VWS V14.00,2013-04-26 10:19:00,
2013-04-26 05:24:00,43.3,33.1,30.25,SE,135,0.5,7.8,67,0.00,,BKN120,0.00,VWS V14.00,2013-04-26 10:24:00,
2013-04-26 05:29:00,43.2,33.3,30.26,SSE,157,3.6,7.4,68,0.00,,BKN120,0.00,VWS V14.00,2013-04-26 10:29:00,
2013-04-26 05:34:00,43.2,33.4,30.26,SSE,154,2.8,7.4,68,0.00,,BKN120,0.00,VWS V14.00,2013-04-26 10:34:00,
2013-04-26 05:39:00,43.2,33.5,30.26,SSE,161,4.1,7.4,68,0.00,,BKN120,0.00,VWS V14.00,2013-04-26 10:39:00,
2013-04-26 05:44:00,43.0,33.4,30.26,SSE,148,1.1,8.8,69,0.00,,BKN120,0.00,VWS V14.00,2013-04-26 10:44:00,
2013-04-26 05:49:00,43.1,33.3,30.26,SE,146,3.7,8.8,68,0.00,,BKN120,0.00,VWS V14.00,2013-04-26 10:49:00,
2013-04-26 05:54:00,43.1,33.2,30.26,SE,145,1.0,7.9,68,0.00,,BKN120,0.00,VWS V14.00,2013-04-26 10:54:00,
2013-04-26 05:59:00,43.1,33.4,30.26,SE,145,1.5,6.4,68,0.00,,BKN120,0.00,VWS V14.00,2013-04-26 10:59:00,
2013-04-26 06:04:00,43.1,33.6,30.27,SE,145,1.4,6.2,69,0.00,,BKN120,0.00,VWS V14.00,2013-04-26 11:04:00,
2013-04-26 06:09:00,43.0,33.8,30.26,SSE,147,3.2,5.7,70,0.00,,BKN120,0.00,VWS V14.00,2013-04-26 11:09:00,
2013-04-26 06:14:00,43.2,34.2,30.26,SE,144,0.2,6.9,70,0.00,,BKN120,0.00,VWS V14.00,2013-04-26 11:14:00,
2013-04-26 06:19:00,43.3,33.9,30.26,SE,137,3.2,7.9,69,0.00,,BKN120,0.00,VWS V14.00,2013-04-26 11:19:00,
2013-04-26 06:24:00,43.5,34.0,30.25,SE,134,8.8,8.8,69,0.00,,BKN120,0.00,VWS V14.00,2013-04-26 11:24:00,
2013-04-26 06:29:00,43.8,34.0,30.25,SE,131,8.9,11.5,68,0.00,,BKN120,0.00,VWS V14.00,2013-04-26 11:29:00,
2013-04-26 06:34:00,44.0,34.0,30.25,SE,132,9.8,11.8,67,0.00,,BKN120,0.00,VWS V14.00,2013-04-26 11:34:00,
2013-04-26 06:39:00,44.2,34.2,30.25,SE,132,10.5,11.8,68,0.00,,BKN120,0.00,VWS V14.00,2013-04-26 11:39:00,
2013-04-26 06:44:00,44.3,34.4,30.25,SE,129,3.5,13.5,68,0.00,,BKN120,0.00,VWS V14.00,2013-04-26 11:44:00,
2013-04-26 06:49:00,44.5,34.6,30.25,SE,132,6.4,13.5,68,0.00,,BKN120,0.00,VWS V14.00,2013-04-26 11:49:00,
2013-04-26 06:54:00,44.6,34.8,30.24,SE,136,5.3,12.8,68,0.00,,BKN120,0.00,VWS V14.00,2013-04-26 11:54:00,
2013-04-26 06:59:00,44.9,35.0,30.24,SE,144,0.8,9.5,68,0.00,,BKN120,0.00,VWS V14.00,2013-04-26 11:59:00,
2013-04-26 07:04:00,45.9,35.5,30.24,SSE,156,3.9,11.6,67,0.00,,SCT120,0.00,VWS V14.00,2013-04-26 12:04:00,
2013-04-26 07:09:00,47.1,35.6,30.24,South,176,11.9,13.7,64,0.00,,SCT120,0.00,VWS V14.00,2013-04-26 12:09:00,
2013-04-26 07:14:00,47.9,35.8,30.24,South,171,11.5,15.3,63,0.00,,SCT120,0.00,VWS V14.00,2013-04-26 12:14:00,
2013-04-26 07:19:00,48.8,36.2,30.24,South,175,8.2,15.3,62,0.00,,SCT120,0.00,VWS V14.00,2013-04-26 12:19:00,
2013-04-26 07:24:00,49.1,36.3,30.24,SSE,161,4.2,15.3,61,0.00,,SCT120,0.00,VWS V14.00,2013-04-26 12:24:00,
2013-04-26 07:29:00,49.3,36.2,30.24,SSE,158,1.2,12.1,61,0.00,,SCT120,0.00,VWS V14.00,2013-04-26 12:29:00,
2013-04-26 07:34:00,49.8,36.7,30.24,SSE,158,5.0,9.8,61,0.00,,SCT120,0.00,VWS V14.00,2013-04-26 12:34:00,
2013-04-26 07:39:00,49.9,36.6,30.24,South,171,6.2,7.8,60,0.00,,SCT120,0.00,VWS V14.00,2013-04-26 12:39:00,
2013-04-26 07:44:00,49.9,36.4,30.24,SSE,166,6.9,9.3,60,0.00,,SCT120,0.00,VWS V14.00,2013-04-26 12:44:00,
2013-04-26 07:49:00,50.2,37.2,30.24,South,171,7.6,12.8,61,0.00,,SCT120,0.00,VWS V14.00,2013-04-26 12:49:00,
2013-04-26 07:54:00,50.9,36.8,30.24,SSE,164,11.0,14.7,58,0.00,,SCT120,0.00,VWS V14.00,2013-04-26 12:54:00,
2013-04-26 07:59:00,51.7,37.2,30.24,South,177,10.8,14.7,58,0.00,,SCT120,0.00,VWS V14.00,2013-04-26 12:59:00,
2013-04-26 08:04:00,51.6,36.9,30.24,SSW,199,16.5,16.5,57,0.00,,CLR,0.00,VWS V14.00,2013-04-26 13:04:00,
2013-04-26 08:09:00,52.0,36.8,30.24,SSE,164,11.5,16.5,56,0.00,,CLR,0.00,VWS V14.00,2013-04-26 13:09:00,
2013-04-26 08:14:00,52.3,37.0,30.24,SSE,165,9.8,16.5,56,0.00,,CLR,0.00,VWS V14.00,2013-04-26 13:14:00,
2013-04-26 08:19:00,52.6,36.8,30.23,South,173,13.7,15.7,55,0.00,,SCT120,0.00,VWS V14.00,2013-04-26 13:19:00,
2013-04-26 08:24:00,52.8,37.5,30.24,South,181,11.5,15.7,56,0.00,,SCT120,0.00,VWS V14.00,2013-04-26 13:24:00,
2013-04-26 08:30:00,53.1,37.6,30.24,South,170,10.3,16.7,56,0.00,,SCT120,0.00,VWS V14.00,2013-04-26 13:30:00,
2013-04-26 08:35:00,53.1,37.8,30.24,SSE,154,9.2,19.9,56,0.00,,SCT120,0.00,VWS V14.00,2013-04-26 13:35:00,
2013-04-26 08:40:00,53.7,38.3,30.24,South,176,9.1,19.9,56,0.00,,SCT120,0.00,VWS V14.00,2013-04-26 13:40:00,
2013-04-26 08:45:00,54.0,38.6,30.24,South,177,10.3,19.9,56,0.00,,SCT120,0.00,VWS V14.00,2013-04-26 13:45:00,
2013-04-26 08:50:00,54.3,38.7,30.23,South,181,12.8,19.1,55,0.00,,SCT120,0.00,VWS V14.00,2013-04-26 13:50:00,
2013-04-26 08:55:00,55.0,38.8,30.23,South,190,12.1,16.5,54,0.00,,SCT120,0.00,VWS V14.00,2013-04-26 13:55:00,
2013-04-26 09:00:00,55.7,39.1,30.23,South,188,10.1,21.3,53,0.00,,SCT120,0.00,VWS V14.00,2013-04-26 14:00:00,
2013-04-26 09:05:00,55.5,38.4,30.23,South,176,7.3,21.3,52,0.00,,SCT120,0.00,VWS V14.00,2013-04-26 14:05:00,
2013-04-26 09:10:00,55.5,38.4,30.23,South,190,10.3,17.5,53,0.00,,SCT120,0.00,VWS V14.00,2013-04-26 14:10:00,
2013-04-26 09:15:00,55.6,39.0,30.23,South,183,7.5,22.6,53,0.00,,SCT120,0.00,VWS V14.00,2013-04-26 14:15:00,
2013-04-26 09:20:00,55.7,38.8,30.23,South,187,8.8,24.7,53,0.00,,CLR,0.00,VWS V14.00,2013-04-26 14:20:00,
2013-04-26 09:25:00,56.3,39.2,30.23,SSE,155,7.1,24.7,52,0.00,,CLR,0.00,VWS V14.00,2013-04-26 14:25:00,
2013-04-26 09:30:00,56.3,38.8,30.23,SSW,197,16.4,26.3,52,0.00,,CLR,0.00,VWS V14.00,2013-04-26 14:30:00,
2013-04-26 09:35:00,56.8,40.0,30.23,South,180,9.8,26.3,53,0.00,,CLR,0.00,VWS V14.00,2013-04-26 14:35:00,
2013-04-26 09:40:00,57.7,39.5,30.22,SSW,208,16.2,27.3,51,0.00,,CLR,0.00,VWS V14.00,2013-04-26 14:40:00,
2013-04-26 09:45:00,57.8,39.8,30.22,South,177,9.9,28.0,51,0.00,,CLR,0.00,VWS V14.00,2013-04-26 14:45:00,
2013-04-26 09:50:00,57.8,39.7,30.22,South,169,19.1,28.5,51,0.00,,CLR,0.00,VWS V14.00,2013-04-26 14:50:00,
2013-04-26 09:55:00,58.1,39.8,30.22,SW,220,26.5,35.5,50,0.00,,CLR,0.00,VWS V14.00,2013-04-26 14:55:00,
2013-04-26 10:00:00,59.0,40.2,30.22,South,171,21.8,35.5,50,0.00,,CLR,0.00,VWS V14.00,2013-04-26 15:00:00,
2013-04-26 10:05:00,59.3,41.0,30.22,South,184,8.3,35.5,50,0.00,,CLR,0.00,VWS V14.00,2013-04-26 15:05:00,
2013-04-26 10:10:00,59.0,40.4,30.22,SSE,157,13.0,27.7,50,0.00,,CLR,0.00,VWS V14.00,2013-04-26 15:10:00,
2013-04-26 10:15:00,59.5,40.7,30.22,South,176,25.4,36.9,50,0.00,,CLR,0.00,VWS V14.00,2013-04-26 15:15:00,
2013-04-26 10:20:00,60.5,41.0,30.22,South,184,26.8,36.9,49,0.00,,CLR,0.00,VWS V14.00,2013-04-26 15:20:00,
2013-04-26 10:25:00,60.7,41.1,30.22,South,190,19.7,27.3,48,0.00,,CLR,0.00,VWS V14.00,2013-04-26 15:25:00,
2013-04-26 10:30:00,60.3,41.1,30.22,SSW,197,15.2,29.3,49,0.00,,CLR,0.00,VWS V14.00,2013-04-26 15:30:00,
2013-04-26 10:35:00,61.0,41.1,30.22,SSW,202,23.0,29.3,48,0.00,,CLR,0.00,VWS V14.00,2013-04-26 15:35:00,
2013-04-26 10:40:00,61.3,41.8,30.22,SSW,212,16.2,26.0,49,0.00,,CLR,0.00,VWS V14.00,2013-04-26 15:40:00,
2013-04-26 10:45:00,61.5,42.0,30.22,South,182,17.0,26.7,49,0.00,,CLR,0.00,VWS V14.00,2013-04-26 15:45:00,
2013-04-26 10:50:00,62.6,42.3,30.23,SSW,206,20.2,33.2,47,0.00,,CLR,0.00,VWS V14.00,2013-04-26 15:50:00,
2013-04-26 10:55:00,64.0,43.1,30.23,South,188,20.2,33.2,46,0.00,,CLR,0.00,VWS V14.00,2013-04-26 15:55:00,
2013-04-26 11:00:00,62.6,41.8,30.23,SSW,209,23.6,40.1,46,0.00,,CLR,0.00,VWS V14.00,2013-04-26 16:00:00,
2013-04-26 11:05:00,62.5,41.9,30.23,SSW,196,21.9,40.1,47,0.00,,CLR,0.00,VWS V14.00,2013-04-26 16:05:00,
2013-04-26 11:10:00,62.4,42.3,30.23,SSW,211,21.8,36.4,48,0.00,,CLR,0.00,VWS V14.00,2013-04-26 16:10:00,
2013-04-26 11:15:00,63.1,42.7,30.23,SW,218,22.9,33.8,47,0.00,,CLR,0.00,VWS V14.00,2013-04-26 16:15:00,
2013-04-26 11:20:00,63.8,43.1,30.23,South,185,15.5,29.7,47,0.00,,CLR,0.00,VWS V14.00,2013-04-26 16:20:00,
2013-04-26 11:26:00,63.5,43.0,30.23,South,186,23.5,35.2,47,0.00,,CLR,0.00,VWS V14.00,2013-04-26 16:26:00,
2013-04-26 11:31:00,63.7,43.0,30.23,SSW,200,20.6,35.2,47,0.00,,CLR,0.00,VWS V14.00,2013-04-26 16:31:00,
2013-04-26 11:36:00,63.5,43.2,30.23,SW,227,24.6,35.2,47,0.00,,CLR,0.00,VWS V14.00,2013-04-26 16:36:00,
2013-04-26 11:41:00,63.5,43.7,30.23,SSW,211,25.2,31.1,48,0.00,,CLR,0.00,VWS V14.00,2013-04-26 16:41:00,
2013-04-26 11:46:00,64.5,44.1,30.23,SW,214,19.4,31.1,47,0.00,,CLR,0.00,VWS V14.00,2013-04-26 16:46:00,
2013-04-26 11:51:00,65.0,44.0,30.23,South,191,20.2,29.2,47,0.00,,CLR,0.00,VWS V14.00,2013-04-26 16:51:00,
2013-04-26 11:56:00,64.8,44.5,30.23,SSW,209,19.7,31.7,48,0.00,,CLR,0.00,VWS V14.00,2013-04-26 16:56:00,
2013-04-26 12:01:00,65.6,44.6,30.23,SW,216,19.7,31.7,46,0.00,,CLR,0.00,VWS V14.00,2013-04-26 17:01:00,
2013-04-26 12:06:00,65.6,45.2,30.23,South,181,11.7,31.7,48,0.00,,CLR,0.00,VWS V14.00,2013-04-26 17:06:00,
2013-04-26 12:11:00,65.5,45.3,30.23,WSW,252,14.2,30.5,48,0.00,,CLR,0.00,VWS V14.00,2013-04-26 17:11:00,
2013-04-26 12:16:00,65.9,46.0,30.23,SSW,211,14.0,30.5,49,0.00,,CLR,0.00,VWS V14.00,2013-04-26 17:16:00,
2013-04-26 12:21:00,66.8,44.4,30.22,SW,228,24.8,30.5,44,0.00,,CLR,0.00,VWS V14.00,2013-04-26 17:21:00,
2013-04-26 12:26:00,67.4,45.9,30.22,SW,219,16.9,26.5,46,0.00,,CLR,0.00,VWS V14.00,2013-04-26 17:26:00,
2013-04-26 12:31:00,66.5,44.7,30.22,SSW,192,16.7,26.5,45,0.00,,CLR,0.00,VWS V14.00,2013-04-26 17:31:00,
2013-04-26 12:36:00,66.8,45.2,30.22,SSW,211,14.9,25.6,46,0.00,,CLR,0.00,VWS V14.00,2013-04-26 17:36:00,
2013-04-26 12:41:00,67.6,46.0,30.21,West,271,9.8,25.6,46,0.00,,CLR,0.00,VWS V14.00,2013-04-26 17:41:00,
2013-04-26 12:46:00,68.6,46.2,30.21,South,188,14.0,25.6,45,0.00,,CLR,0.00,VWS V14.00,2013-04-26 17:46:00,
2013-04-26 12:51:00,69.1,47.1,30.21,SW,225,15.5,23.1,45,0.00,,CLR,0.00,VWS V14.00,2013-04-26 17:51:00,
2013-04-26 12:56:00,68.9,45.3,30.21,SW,235,18.1,23.1,43,0.00,,CLR,0.00,VWS V14.00,2013-04-26 17:56:00,
2013-04-26 13:01:00,67.9,45.3,30.21,SW,228,20.1,23.6,44,0.00,,CLR,0.00,VWS V14.00,2013-04-26 18:01:00,
2013-04-26 13:06:00,69.0,46.0,30.20,SSW,209,12.4,26.6,44,0.00,,CLR,0.00,VWS V14.00,2013-04-26 18:06:00,
2013-04-26 13:11:00,68.9,46.3,30.20,SW,217,11.0,27.0,44,0.00,,CLR,0.00,VWS V14.00,2013-04-26 18:11:00,
2013-04-26 13:16:00,69.7,46.9,30.20,SW,219,13.1,27.0,44,0.00,,CLR,0.00,VWS V14.00,2013-04-26 18:16:00,
2013-04-26 13:21:00,69.6,46.6,30.20,WSW,247,14.0,22.4,44,0.00,,CLR,0.00,VWS V14.00,2013-04-26 18:21:00,
2013-04-26 13:26:00,69.6,46.5,30.20,SSE,159,20.9,24.8,44,0.00,,CLR,0.00,VWS V14.00,2013-04-26 18:26:00,
2013-04-26 13:31:00,69.9,46.7,30.20,SW,215,14.0,24.8,43,0.00,,CLR,0.00,VWS V14.00,2013-04-26 18:31:00,
2013-04-26 13:36:00,69.8,46.7,30.20,SW,214,16.7,22.6,44,0.00,,CLR,0.00,VWS V14.00,2013-04-26 18:36:00,
2013-04-26 13:41:00,69.6,46.6,30.19,SSW,210,20.8,22.9,44,0.00,,CLR,0.00,VWS V14.00,2013-04-26 18:41:00,
2013-04-26 13:46:00,70.0,46.5,30.19,SSW,210,15.2,26.8,43,0.00,,CLR,0.00,VWS V14.00,2013-04-26 18:46:00,
2013-04-26 13:51:00,69.7,46.2,30.19,WSW,248,18.3,26.8,43,0.00,,CLR,0.00,VWS V14.00,2013-04-26 18:51:00,
2013-04-26 13:56:00,70.5,47.2,30.19,SW,222,19.1,19.2,43,0.00,,CLR,0.00,VWS V14.00,2013-04-26 18:56:00,
2013-04-26 14:01:00,70.6,46.7,30.19,SW,227,19.7,22.2,42,0.00,,CLR,0.00,VWS V14.00,2013-04-26 19:01:00,
2013-04-26 14:06:00,70.6,48.0,30.19,SSW,193,12.4,22.2,44,0.00,,CLR,0.00,VWS V14.00,2013-04-26 19:06:00,
2013-04-26 14:11:00,70.7,46.6,30.19,SSW,208,23.1,23.5,42,0.00,,CLR,0.00,VWS V14.00,2013-04-26 19:11:00,
2013-04-26 14:16:00,70.0,47.5,30.19,SSW,205,6.6,23.5,45,0.00,,CLR,0.00,VWS V14.00,2013-04-26 19:16:00,
2013-04-26 14:21:00,70.3,46.9,30.19,SW,220,18.1,26.3,43,0.00,,CLR,0.00,VWS V14.00,2013-04-26 19:21:00,
2013-04-26 14:26:00,70.4,47.3,30.19,WSW,238,12.6,32.2,44,0.00,,CLR,0.00,VWS V14.00,2013-04-26 19:26:00,
2013-04-26 14:31:00,70.2,46.6,30.19,SW,224,29.4,32.2,43,0.00,,SCT050,0.00,VWS V14.00,2013-04-26 19:31:00,
2013-04-26 14:37:00,70.5,47.7,30.19,SW,219,15.4,32.2,44,0.00,,SCT050,0.00,VWS V14.00,2013-04-26 19:37:00,
2013-04-26 14:42:00,70.4,49.4,30.18,WSW,242,3.2,29.4,47,0.00,,SCT050,0.00,VWS V14.00,2013-04-26 19:42:00,
2013-04-26 14:47:00,70.8,47.4,30.18,SSW,211,18.4,25.6,43,0.00,,SCT050,0.00,VWS V14.00,2013-04-26 19:47:00,
2013-04-26 14:52:00,70.7,48.1,30.19,SSW,209,14.9,27.0,45,0.00,,SCT050,0.00,VWS V14.00,2013-04-26 19:52:00,
2013-04-26 14:57:00,70.2,47.4,30.18,SSW,200,16.7,27.0,44,0.00,,SCT050,0.00,VWS V14.00,2013-04-26 19:57:00,
2013-04-26 15:02:00,70.2,46.7,30.18,SSE,150,30.4,30.4,43,0.00,,SCT049,0.00,VWS V14.00,2013-04-26 20:02:00,
2013-04-26 15:07:00,70.3,47.5,30.18,SW,219,17.2,31.8,44,0.00,,SCT049,0.00,VWS V14.00,2013-04-26 20:07:00,
2013-04-26 15:12:00,70.8,48.7,30.18,SW,216,13.3,31.8,45,0.00,,SCT049,0.00,VWS V14.00,2013-04-26 20:12:00,
2013-04-26 15:17:00,70.2,47.3,30.18,SW,224,19.5,31.8,44,0.00,,SCT049,0.00,VWS V14.00,2013-04-26 20:17:00,
2013-04-26 15:22:00,70.1,46.1,30.18,SSW,198,19.7,28.6,42,0.00,,SCT049,0.00,VWS V14.00,2013-04-26 20:22:00,
2013-04-26 15:27:00,69.8,46.5,30.18,SW,215,17.5,28.6,43,0.00,,SCT049,0.00,VWS V14.00,2013-04-26 20:27:00,
2013-04-26 15:32:00,70.0,45.2,30.18,SSW,210,34.1,34.1,41,0.00,,CLR,0.00,VWS V14.00,2013-04-26 20:32:00,
2013-04-26 15:37:00,70.4,45.9,30.18,SW,231,17.4,34.1,42,0.00,,CLR,0.00,VWS V14.00,2013-04-26 20:37:00,
2013-04-26 15:42:00,70.7,47.4,30.18,SSW,195,11.3,34.1,44,0.00,,CLR,0.00,VWS V14.00,2013-04-26 20:42:00,
2013-04-26 15:47:00,70.8,47.5,30.17,SW,236,18.7,30.7,44,0.00,,CLR,0.00,VWS V14.00,2013-04-26 20:47:00,
2013-04-26 15:52:00,70.2,44.6,30.18,WSW,241,21.7,30.7,40,0.00,,CLR,0.00,VWS V14.00,2013-04-26 20:52:00,
2013-04-26 15:57:00,69.6,45.0,30.18,SSW,206,14.7,31.0,41,0.00,,CLR,0.00,VWS V14.00,2013-04-26 20:57:00,
2013-04-26 16:02:00,69.8,46.4,30.17,SW,229,17.8,31.0,43,0.00,,CLR,0.00,VWS V14.00,2013-04-26 21:02:00,
2013-04-26 16:07:00,69.8,45.1,30.18,SSW,205,15.0,29.4,41,0.00,,CLR,0.00,VWS V14.00,2013-04-26 21:07:00,
2013-04-26 16:12:00,69.7,44.3,30.18,SSW,203,17.7,29.3,40,0.00,,CLR,0.00,VWS V14.00,2013-04-26 21:12:00,
2013-04-26 16:17:00,69.4,44.8,30.18,SW,235,17.0,29.3,41,0.00,,CLR,0.00,VWS V14.00,2013-04-26 21:17:00,
2013-04-26 16:22:00,69.5,44.3,30.18,SW,219,21.4,29.7,40,0.00,,CLR,0.00,VWS V14.00,2013-04-26 21:22:00,
2013-04-26 16:27:00,68.9,44.1,30.18,SW,218,27.2,29.7,41,0.00,,CLR,0.00,VWS V14.00,2013-04-26 21:27:00,
2013-04-26 16:32:00,68.8,44.7,30.18,SW,221,14.0,29.7,42,0.00,,CLR,0.00,VWS V14.00,2013-04-26 21:32:00,
2013-04-26 16:37:00,68.7,45.1,30.18,WSW,244,17.4,28.6,43,0.00,,CLR,0.00,VWS V14.00,2013-04-26 21:37:00,
2013-04-26 16:42:00,69.0,44.4,30.18,South,181,26.7,26.7,41,0.00,,CLR,0.00,VWS V14.00,2013-04-26 21:42:00,
2013-04-26 16:47:00,68.7,43.9,30.18,SSW,212,18.1,26.7,41,0.00,,CLR,0.00,VWS V14.00,2013-04-26 21:47:00,
2013-04-26 16:52:00,68.1,44.0,30.18,SSW,200,36.9,36.9,42,0.00,,CLR,0.00,VWS V14.00,2013-04-26 21:52:00,
2013-04-26 16:57:00,68.5,45.0,30.18,SSW,210,13.7,36.9,43,0.00,,CLR,0.00,VWS V14.00,2013-04-26 21:57:00,
2013-04-26 17:02:00,68.1,44.3,30.18,SW,225,17.9,36.9,42,0.00,,CLR,0.00,VWS V14.00,2013-04-26 22:02:00,
2013-04-26 17:07:00,68.1,44.5,30.18,SSW,203,18.4,28.6,43,0.00,,CLR,0.00,VWS V14.00,2013-04-26 22:07:00,
2013-04-26 17:12:00,67.9,45.3,30.18,SSW,196,16.2,28.6,44,0.00,,CLR,0.00,VWS V14.00,2013-04-26 22:12:00,
2013-04-26 17:17:00,67.7,45.4,30.18,SSW,197,17.7,31.2,45,0.00,,CLR,0.00,VWS V14.00,2013-04-26 22:17:00,
2013-04-26 17:22:00,67.2,44.8,30.18,SSW,212,23.8,31.2,44,0.00,,CLR,0.00,VWS V14.00,2013-04-26 22:22:00,
2013-04-26 17:27:00,67.5,45.6,30.18,SSW,199,14.7,26.3,45,0.00,,CLR,0.00,VWS V14.00,2013-04-26 22:27:00,
2013-04-26 17:32:00,67.0,45.7,30.19,SSW,200,18.6,26.3,46,0.00,,CLR,0.00,VWS V14.00,2013-04-26 22:32:00,
2013-04-26 17:38:00,66.8,46.6,30.19,SSW,193,14.7,30.0,48,0.00,,CLR,0.00,VWS V14.00,2013-04-26 22:38:00,
2013-04-26 17:43:00,66.9,46.8,30.19,SSE,166,13.3,30.0,48,0.00,,CLR,0.00,VWS V14.00,2013-04-26 22:43:00,
2013-04-26 17:48:00,66.6,46.2,30.19,SSW,203,16.4,26.3,48,0.00,,CLR,0.00,VWS V14.00,2013-04-26 22:48:00,
2013-04-26 17:53:00,66.2,46.4,30.19,SSW,209,14.2,32.7,49,0.00,,CLR,0.00,VWS V14.00,2013-04-26 22:53:00,
2013-04-26 17:58:00,65.9,46.5,30.19,SW,218,14.7,32.7,49,0.00,,CLR,0.00,VWS V14.00,2013-04-26 22:58:00,
2013-04-26 18:03:00,65.6,46.2,30.19,SW,224,24.1,26.8,50,0.00,,SCT065,0.00,VWS V14.00,2013-04-26 23:03:00,
2013-04-26 18:08:00,65.1,46.7,30.19,SW,218,12.1,26.8,51,0.00,,SCT065,0.00,VWS V14.00,2013-04-26 23:08:00,
2013-04-26 18:13:00,65.1,46.9,30.20,SW,218,32.1,32.1,52,0.00,,SCT065,0.00,VWS V14.00,2013-04-26 23:13:00,
2013-04-26 18:18:00,65.2,47.1,30.20,SW,214,15.7,32.1,52,0.00,,SCT050,0.00,VWS V14.00,2013-04-26 23:18:00,
2013-04-26 18:23:00,65.2,47.5,30.20,SSW,197,29.2,32.1,53,0.00,,SCT050,0.00,VWS V14.00,2013-04-26 23:23:00,
2013-04-26 18:28:00,65.0,47.7,30.20,SSW,208,17.0,36.6,53,0.00,,SCT050,0.00,VWS V14.00,2013-04-26 23:28:00,
2013-04-26 18:33:00,65.0,47.5,30.20,SSW,210,14.4,36.6,53,0.00,,SCT050,0.00,VWS V14.00,2013-04-26 23:33:00,
2013-04-26 18:38:00,64.7,47.7,30.20,SSW,211,12.1,23.0,54,0.00,,SCT050,0.00,VWS V14.00,2013-04-26 23:38:00,
2013-04-26 18:43:00,64.5,46.7,30.20,SSW,203,33.6,33.6,52,0.00,,SCT050,0.00,VWS V14.00,2013-04-26 23:43:00,
2013-04-26 18:48:00,64.2,46.3,30.20,SW,216,13.2,33.6,52,0.00,,SCT050,0.00,VWS V14.00,2013-04-26 23:48:00,
2013-04-26 18:53:00,64.1,46.2,30.20,SW,223,15.0,33.6,52,0.00,,SCT050,0.00,VWS V14.00,2013-04-26 23:53:00,
2013-04-26 19:06:00,63.6,46.6,30.21,SSW,209,6.6,25.6,54,0.00,,OVC050,0.00,VWS V14.00,2013-04-27 00:06:00,
2013-04-26 19:11:00,63.3,46.0,30.21,SW,218,10.1,25.6,53,0.00,,OVC050,0.00,VWS V14.00,2013-04-27 00:11:00,
2013-04-26 19:16:00,63.2,46.0,30.21,SSW,213,15.7,25.8,53,0.00,,OVC050,0.00,VWS V14.00,2013-04-27 00:16:00,
2013-04-26 19:21:00,63.0,46.2,30.21,SSW,207,9.4,25.8,54,0.00,,OVC050,0.00,VWS V14.00,2013-04-27 00:21:00,
2013-04-26 19:26:00,62.7,46.2,30.20,South,175,11.0,27.0,55,0.00,,OVC050,0.00,VWS V14.00,2013-04-27 00:26:00,
2013-04-26 19:31:00,62.3,46.3,30.21,SSW,201,22.3,34.1,56,0.00,,OVC050,0.00,VWS V14.00,2013-04-27 00:31:00,
2013-04-26 19:36:00,62.1,46.5,30.21,South,186,20.4,34.1,57,0.00,,OVC050,0.00,VWS V14.00,2013-04-27 00:36:00,
2013-04-26 19:41:00,61.7,46.8,30.21,SSW,210,16.7,32.2,58,0.00,,OVC050,0.00,VWS V14.00,2013-04-27 00:41:00,
2013-04-26 19:46:00,61.3,47.0,30.21,South,183,25.0,33.2,59,0.00,,OVC050,0.00,VWS V14.00,2013-04-27 00:46:00,
2013-04-26 19:51:00,60.8,47.2,30.21,SSW,208,20.1,33.2,61,0.00,,OVC050,0.00,VWS V14.00,2013-04-27 00:51:00,
2013-04-26 19:56:00,60.5,47.2,30.21,SSW,201,16.0,30.2,61,0.00,,OVC050,0.00,VWS V14.00,2013-04-27 00:56:00,
2013-04-26 20:01:00,60.1,47.3,30.21,SW,214,16.2,30.2,63,0.00,,BKN050,0.00,VWS V14.00,2013-04-27 01:01:00,
2013-04-26 20:06:00,59.8,47.4,30.21,SSW,198,11.8,23.5,64,0.00,,BKN050,0.00,VWS V14.00,2013-04-27 01:06:00,
2013-04-26 20:11:00,59.5,47.4,30.22,South,191,20.4,20.4,64,0.00,,BKN050,0.00,VWS V14.00,2013-04-27 01:11:00,
2013-04-26 20:16:00,59.2,47.2,30.22,South,187,19.2,20.4,64,0.00,,SCT050,0.00,VWS V14.00,2013-04-27 01:16:00,
2013-04-26 20:21:00,59.2,46.8,30.22,SSW,194,13.8,22.6,64,0.00,,SCT050,0.00,VWS V14.00,2013-04-27 01:21:00,
2013-04-26 20:26:00,58.7,46.8,30.22,SSW,197,13.3,22.6,65,0.00,,SCT050,0.00,VWS V14.00,2013-04-27 01:26:00,
2013-04-26 20:31:00,58.5,46.8,30.22,SSW,192,13.7,20.4,65,0.00,,CLR,0.00,VWS V14.00,2013-04-27 01:31:00,
2013-04-26 20:36:00,58.3,46.8,30.23,SSW,202,8.8,21.4,66,0.00,,CLR,0.00,VWS V14.00,2013-04-27 01:36:00,
2013-04-26 20:41:00,58.1,46.9,30.23,South,191,19.7,21.4,66,0.00,,CLR,0.00,VWS V14.00,2013-04-27 01:41:00,
2013-04-26 20:46:00,58.1,47.1,30.23,SW,216,16.0,22.4,67,0.00,,CLR,0.00,VWS V14.00,2013-04-27 01:46:00,
2013-04-26 20:51:00,57.9,47.2,30.24,South,180,15.9,22.4,67,0.00,,CLR,0.00,VWS V14.00,2013-04-27 01:51:00,
2013-04-26 20:56:00,57.8,47.4,30.24,SSW,194,7.3,16.0,68,0.00,,CLR,0.00,VWS V14.00,2013-04-27 01:56:00,
2013-04-26 21:01:00,57.8,47.5,30.24,South,183,10.5,18.1,69,0.00,,CLR,0.00,VWS V14.00,2013-04-27 02:01:00,
2013-04-26 21:06:00,57.8,47.4,30.24,South,188,10.6,18.7,68,0.00,,CLR,0.00,VWS V14.00,2013-04-27 02:06:00,
2013-04-26 21:11:00,57.5,47.6,30.24,SSW,198,10.1,18.7,70,0.00,,CLR,0.00,VWS V14.00,2013-04-27 02:11:00,
2013-04-26 21:16:00,57.2,47.8,30.24,South,191,11.5,18.7,71,0.00,,CLR,0.00,VWS V14.00,2013-04-27 02:16:00,
2013-04-26 21:21:00,57.0,47.8,30.24,SSW,200,15.6,17.9,71,0.00,,CLR,0.00,VWS V14.00,2013-04-27 02:21:00,
2013-04-26 21:26:00,56.8,47.8,30.25,South,187,14.5,17.9,72,0.00,,CLR,0.00,VWS V14.00,2013-04-27 02:26:00,
2013-04-26 21:31:00,56.6,47.9,30.25,South,188,11.8,17.7,73,0.00,,CLR,0.00,VWS V14.00,2013-04-27 02:31:00,
2013-04-26 21:36:00,56.4,48.1,30.24,South,191,12.3,19.4,74,0.00,,CLR,0.00,VWS V14.00,2013-04-27 02:36:00,
2013-04-26 21:41:00,56.2,48.5,30.24,South,183,12.1,19.4,75,0.00,,CLR,0.00,VWS V14.00,2013-04-27 02:41:00,
2013-04-26 21:46:00,55.8,49.0,30.24,SSW,203,12.5,18.5,78,0.00,,CLR,0.00,VWS V14.00,2013-04-27 02:46:00,
2013-04-26 21:52:00,55.9,49.0,30.24,South,187,17.5,20.8,78,0.00,,CLR,0.00,VWS V14.00,2013-04-27 02:52:00,
2013-04-26 21:57:00,55.9,49.0,30.25,SSW,198,14.5,20.8,77,0.00,,CLR,0.00,VWS V14.00,2013-04-27 02:57:00,
2013-04-26 22:02:00,56.0,48.8,30.25,SSW,209,12.7,20.8,77,0.00,,SCT050,0.00,VWS V14.00,2013-04-27 03:02:00,
2013-04-26 22:07:00,56.0,48.6,30.25,SSW,193,15.2,20.4,76,0.00,,SCT050,0.00,VWS V14.00,2013-04-27 03:07:00,
2013-04-26 22:12:00,56.1,48.4,30.25,SSW,196,14.6,19.7,75,0.00,,SCT050,0.00,VWS V14.00,2013-04-27 03:12:00,
2013-04-26 22:17:00,56.0,48.5,30.25,SSW,195,9.5,19.7,76,0.00,,SCT050,0.00,VWS V14.00,2013-04-27 03:17:00,
2013-04-26 22:22:00,55.9,48.4,30.25,SW,214,14.9,19.7,76,0.00,,SCT050,0.00,VWS V14.00,2013-04-27 03:22:00,
2013-04-26 22:27:00,55.8,48.3,30.25,South,185,14.0,16.0,76,0.00,,SCT050,0.00,VWS V14.00,2013-04-27 03:27:00,
2013-04-26 22:32:00,55.7,48.3,30.25,SSW,202,11.3,17.8,76,0.00,,OVC048,0.00,VWS V14.00,2013-04-27 03:32:00,
2013-04-26 22:37:00,55.6,48.4,30.25,SSW,212,13.1,18.4,77,0.00,,OVC048,0.00,VWS V14.00,2013-04-27 03:37:00,
2013-04-26 22:42:00,55.5,48.4,30.25,SSW,203,7.8,18.4,77,0.00,,OVC048,0.00,VWS V14.00,2013-04-27 03:42:00,
2013-04-26 22:47:00,55.4,48.2,30.25,SSW,192,16.7,16.7,77,0.00,,OVC048,0.00,VWS V14.00,2013-04-27 03:47:00,
2013-04-26 22:52:00,55.2,48.2,30.25,South,187,12.0,21.0,77,0.00,,OVC048,0.00,VWS V14.00,2013-04-27 03:52:00,
2013-04-26 22:57:00,55.2,48.1,30.25,SSW,194,11.6,21.4,77,0.00,,OVC048,0.00,VWS V14.00,2013-04-27 03:57:00,
2013-04-26 23:01:00,55.2,48.0,30.25,SSW,212,17.2,21.4,77,0.00,,BKN048,0.00,VWS V14.00,2013-04-27 04:01:00,
2013-04-26 23:02:00,55.0,48.0,30.25,SSE,168,14.3,21.4,77,0.00,,BKN048,0.00,VWS V14.00,2013-04-27 04:02:00,
2013-04-26 23:03:00,55.1,48.0,30.25,SW,220,15.7,21.4,77,0.00,,BKN048,0.00,VWS V14.00,2013-04-27 04:03:00,
2013-04-26 23:04:00,55.0,48.0,30.25,SSW,197,13.7,21.4,77,0.00,,BKN048,0.00,VWS V14.00,2013-04-27 04:04:00,
2013-04-26 23:09:00,55.0,48.1,30.25,South,173,12.5,18.2,77,0.00,,BKN048,0.00,VWS V14.00,2013-04-27 04:09:00,
2013-04-26 23:14:00,54.8,48.2,30.25,SSW,200,12.0,20.1,78,0.00,,BKN048,0.00,VWS V14.00,2013-04-27 04:14:00,
2013-04-26 23:19:00,54.7,48.3,30.25,SSW,205,13.7,20.1,79,0.00,,CLR,0.00,VWS V14.00,2013-04-27 04:19:00,
2013-04-26 23:24:00,54.5,48.4,30.25,SSW,207,10.8,18.4,80,0.00,,CLR,0.00,VWS V14.00,2013-04-27 04:24:00,
2013-04-26 23:29:00,54.5,48.5,30.25,SSW,203,15.1,17.7,80,0.00,,CLR,0.00,VWS V14.00,2013-04-27 04:29:00,
2013-04-26 23:34:00,54.4,48.5,30.25,SSW,202,16.5,20.2,81,0.00,,CLR,0.00,VWS V14.00,2013-04-27 04:34:00,
2013-04-26 23:39:00,54.3,48.7,30.25,SSW,193,16.4,20.2,81,0.00,,CLR,0.00,VWS V14.00,2013-04-27 04:39:00,
2013-04-26 23:44:00,54.2,48.8,30.25,SSW,197,17.9,20.2,82,0.00,,CLR,0.00,VWS V14.00,2013-04-27 04:44:00,
2013-04-26 23:49:00,54.1,48.9,30.25,South,191,12.8,19.9,83,0.00,,CLR,0.00,VWS V14.00,2013-04-27 04:49:00,
2013-04-26 23:54:00,53.8,49.2,30.25,SSW,208,14.7,19.9,84,0.00,,CLR,0.00,VWS V14.00,2013-04-27 04:54:00,
2013-04-26 23:59:00,53.7,49.4,30.25,SSW,207,11.5,19.4,85,0.00,,CLR,0.00,VWS V14.00,2013-04-27 04:59:00,